#timestamp,LO_Frequency,Hit,StdDev 
1645549215.2,286046996.9,N
1645549235.0,286047000.0,N
1645549235.9,286047000.0,N
1645549255.8,286047001.1,N
1645549275.6,286047001.0,N
1645549295.5,286047002.4,N
1645549315.3,286047000.0,N
1645549335.1,286047000.5,N
1645549355.9,286046996.9,N
1645549375.7,286047000.3,N
1645549395.5,286047000.5,N
1645549445.4,286046993.9,E
1645549455.3,286046993.9,N
1645549475.2,286046994.0,P
1645549495.9,286046994.5,P
1645549515.7,286046999.2,Y
1645549535.6,286047003.8,P
1645549555.4,286047006.4,N
1645549575.3,286047005.8,N
1645549595.1,286047005.7,N
1645549596.0,286047005.7,N
1645549615.8,286047005.0,N
1645549635.7,286047005.2,N
1645549655.5,286047007.7,N
1645549675.3,286047009.7,N
1645549695.2,286047012.5,Y
1645549715.0,286047013.6,P
1645549715.9,286047013.6,P
1645549735.8,286047013.5,P
1645549755.6,286047009.8,N
1645549775.4,286047010.3,Y
1645549795.3,286046998.6,P
1645549815.1,286046999.0,N
1645549835.9,286047002.2,N
1645549855.7,286046997.6,N
1645549875.5,286046990.0,N
1645549895.4,286046990.6,N
1645549915.2,286046994.1,N
1645549935.0,286046991.8,N
1645549935.9,286046991.8,N
1645549955.8,286046989.3,N
1645549975.6,286046991.4,N
1645549995.5,286046992.9,N
1645550015.3,286046996.0,N
1645550035.1,286046996.3,N
1645550055.9,286046988.7,N
1645550075.7,286046992.3,N
1645550095.5,286046995.6,N
1645550115.4,286046997.5,N
1645550135.2,286046995.3,N
1645550155.1,286046994.0,N
1645550156.0,286046994.0,N
1645550175.8,286046991.8,N
1645550195.6,286046993.7,N
1645550215.5,286046993.4,N
1645550235.3,286046994.5,N
1645550255.1,286046993.9,N
1645550275.9,286046994.4,N
1645550295.7,286046995.2,N
1645550315.6,286046997.1,N
1645550335.4,286046996.9,N
1645550355.2,286046997.6,N
1645550375.1,286046999.2,N
1645550376.0,286046999.2,N
1645550395.8,286046999.0,N
1645550415.7,286047002.4,N
1645550435.5,286047000.5,N
1645550455.3,286047001.0,N
1645550475.2,286047000.0,N
1645550495.0,286046997.2,N
1645550495.9,286046997.2,N
1645550515.7,286046998.6,N
1645550535.6,286046996.8,N
1645550555.4,286046997.8,N
1645550575.3,286046998.1,N
1645550595.1,286046997.4,N
1645550615.8,286046997.2,N
1645550635.7,286046999.2,N
1645550655.5,286046993.5,N
1645550675.4,286046993.9,N
1645550695.2,286046997.6,N
1645550715.0,286046994.0,N
1645550715.9,286046994.0,N
1645550735.8,286046991.8,Y
1645550755.6,286046995.9,P
1645550775.4,286046993.5,P
1645550795.3,286046990.9,P
1645550815.1,286046985.3,Y
1645550835.9,286046992.8,P
1645550855.7,286046988.7,P
1645550875.5,286046987.9,P
1645550895.4,286046990.7,Y
1645550915.2,286046998.7,P
1645550935.1,286047001.9,N
1645550936.0,286047001.9,N
1645550955.8,286047006.3,N
1645550975.6,286047009.4,N
1645550995.5,286047013.0,N
1645551015.3,286047016.8,N
1645551035.1,286047017.1,N
1645551055.9,286047014.7,N
1645551075.7,286047016.1,N
1645551095.6,286047011.2,N
1645551115.4,286047009.0,N
1645551135.2,286047004.9,N
1645551155.1,286047007.2,N
1645551156.0,286047007.2,N
1645551175.8,286047007.2,N
1645551195.6,286047007.0,N
1645551215.5,286047010.8,N
1645551235.3,286047011.0,N
1645551255.2,286047008.4,N
1645551275.9,286047005.8,N
1645551295.7,286047003.0,N
1645551315.6,286047002.2,N
1645551335.4,286047005.9,N
1645551355.2,286047012.3,N
1645551375.1,286047006.2,N
1645551376.0,286047006.2,N
1645551395.8,286047003.8,N
1645551415.7,286047004.7,N
1645551435.5,286047006.7,N
1645551455.3,286047004.3,N
1645551475.2,286047010.4,N
1645551495.9,286047008.4,N
1645551515.7,286047003.5,N
1645551535.6,286047002.4,N
1645551555.4,286046996.6,N
1645551575.2,286047000.4,N
1645551595.1,286046998.7,N
1645551596.0,286046998.7,N
1645551615.8,286046996.8,N
1645551635.7,286046995.5,N
1645551655.5,286047002.6,N
1645551675.3,286046999.0,N
1645551695.2,286046997.0,N
1645551715.0,286046997.7,N
1645551715.9,286046997.7,N
1645551735.8,286046995.6,N
1645551755.6,286046986.4,N
1645551775.4,286046974.6,Y
1645551795.3,286046973.9,P
1645551815.1,286046975.6,N
1645551835.8,286046974.1,N
1645551855.7,286046981.9,N
1645551875.5,286046981.1,N
1645551895.4,286046987.6,N
1645551915.2,286046993.9,N
1645551935.0,286046995.1,N
1645551935.9,286046995.1,N
1645551955.8,286047001.5,N
1645551975.6,286047005.0,N
1645551995.4,286047006.4,N
1645552015.3,286047007.7,N
1645552035.1,286047010.8,N
1645552055.9,286047008.3,N
1645552075.7,286047007.1,N
1645552095.5,286047007.0,N
1645552115.4,286047010.7,N
1645552135.2,286047014.0,N
1645552155.0,286047012.5,N
1645552155.9,286047012.5,N
1645552175.8,286047012.9,N
1645552195.6,286047013.5,N
1645552215.5,286047013.8,N
1645552235.3,286047013.9,N
1645552255.1,286047015.6,N
1645552275.9,286047015.5,N
1645552295.7,286047013.5,N
1645552315.5,286047005.9,N
1645552335.4,286047003.7,N
1645552355.2,286047003.1,N
1645552375.1,286047004.6,N
1645552376.0,286047004.6,N
1645552395.8,286047003.0,N
1645552415.6,286047005.6,N
1645552435.5,286047007.6,N
1645552455.3,286047007.7,N
1645552475.1,286047010.2,N
1645552495.9,286047002.5,N
1645552515.7,286046993.8,N
1645552535.6,286046987.0,N
1645552555.4,286046983.7,N
1645552575.2,286046990.0,N
1645552595.1,286046996.1,N
1645552596.0,286046996.1,N
1645552615.8,286046997.5,N
1645552635.6,286047000.4,N
1645552655.5,286047000.4,N
1645552675.3,286047001.8,N
1645552695.2,286047002.6,N
1645552715.9,286047004.4,N
1645552735.7,286047004.3,N
1645552755.6,286047003.6,N
1645552775.4,286047001.6,N
1645552795.2,286047001.5,N
